Date String (YYYY-MM-DD hh:mm:ss) UTC,Instrument flags,absolute air pressure of the measurement (hPa),sample flow rate (lpm),inlet stack bypass flow (lpm),air temperature of the measurement (°C),ambient temperature measured by the external sensor (°C),aerosol sample conditioner tube jacket temperature (°C),OPC LED temperature (°C),internal box temperature (°C),relative humidity of the measurement (%),span deviation,mass concentration of particles derived from Lorenz-Mie calculation of OPC scattering (μg/m³),mass concentration of particles derived from Lorenz-Mie calculation of OPC scattering (μg/m³),mass concentration of particles derived from Lorenz-Mie calculation of OPC scattering (μg/m³)
DateTimeUTC,F1_M11,P_M11,Q1_M11,Q2_M11,T1_M11,T2_M11,T3_M11,T4_M11,T5_M11,U1_M11,ZSPAN_M11,X0_M11,X2_M11,X1_M11
2023-09-13 05:00:00,SystemResetWarning,0832.2,5.00,000.00,028.5,027.4,000.0,036.8,030.2,22.6,0000.0,0008.90,0004.94,0004.56
2023-09-13 05:01:00,SystemResetWarning,0832.2,5.00,000.00,028.6,027.5,000.0,036.8,030.3,22.6,0000.0,0008.96,0004.97,0004.56
2023-09-13 05:02:00,SystemResetWarning,0832.2,5.00,000.00,028.6,027.5,000.0,036.8,030.3,22.4,0000.0,0008.96,0004.97,0004.56
2023-09-13 05:03:00,SystemResetWarning,0832.2,5.00,000.00,028.6,027.5,000.0,036.9,030.3,22.2,0000.0,0008.82,0004.97,0004.55
2023-09-13 05:04:00,SystemResetWarning,0832.2,4.99,000.00,028.6,026.2,000.0,036.8,030.1,21.9,0000.0,0008.60,0004.95,0004.54
2023-09-13 05:05:00,SystemResetWarning,0832.2,5.01,000.00,028.5,024.6,000.0,036.7,029.8,21.7,0000.0,0008.55,0004.93,0004.54
2023-09-13 05:06:00,SystemResetWarning,0832.2,5.01,000.00,028.4,024.3,000.0,036.7,029.7,21.5,0000.0,0008.53,0004.94,0004.55
2023-09-13 05:07:00,SystemResetWarning,0832.2,5.00,000.00,028.3,024.5,000.0,036.7,029.5,21.5,0000.2,0008.45,0004.94,0004.55
2023-09-13 05:08:00,SystemResetWarning,0832.2,5.00,000.00,028.2,024.9,000.0,036.7,029.4,21.7,0002.9,0008.84,0004.92,0004.55
2023-09-13 05:09:00,SystemResetWarning,0832.2,4.99,000.00,028.2,025.3,000.0,036.7,029.5,22.7,0003.2,0008.38,0004.91,0004.56
2023-09-13 05:10:00,SystemResetWarning,0832.2,5.00,000.00,028.2,025.6,000.0,036.7,029.5,22.0,0003.3,0008.46,0004.94,0004.57
2023-09-13 05:11:00,SystemResetWarning,0832.2,5.01,000.00,028.2,025.9,000.0,036.7,029.6,21.7,0003.0,0008.53,0004.99,0004.60
2023-09-13 05:12:00,SystemResetWarning,0832.2,5.00,000.00,028.2,026.1,000.0,036.7,029.6,21.7,0002.7,0008.66,0004.97,0004.62
2023-09-13 05:13:00,SystemResetWarning,0832.1,5.00,000.00,028.2,026.3,000.0,036.7,029.6,21.8,0002.7,0009.45,0004.96,0004.62
2023-09-13 05:14:00,SystemResetWarning,0832.1,5.00,000.00,028.2,026.5,000.0,036.7,029.7,21.8,0002.7,0009.91,0004.96,0004.62
2023-09-13 05:15:00,SystemResetWarning,0832.1,5.00,000.00,028.2,026.6,000.0,036.7,029.7,21.8,0002.1,0010.29,0004.98,0004.63
2023-09-13 05:16:00,SystemResetWarning,0832.2,5.00,000.00,028.2,026.8,000.0,036.7,029.8,21.6,0002.1,0010.90,0005.00,0004.63
2023-09-13 05:17:00,SystemResetWarning,0832.2,5.00,000.00,028.2,026.9,000.0,036.7,029.8,21.8,0001.8,0011.00,0005.00,0004.62
2023-09-13 05:18:00,SystemResetWarning,0832.2,5.00,000.00,028.3,027.0,000.0,036.7,029.9,21.5,0001.3,0011.53,0005.00,0004.62
2023-09-13 05:19:00,SystemResetWarning,0832.2,5.00,000.00,028.3,027.0,000.0,036.7,029.9,21.2,0000.6,0011.36,0005.02,0004.62
2023-09-13 05:20:00,SystemResetWarning,0832.2,5.00,000.00,028.3,027.1,000.0,036.7,029.9,21.1,0000.1,0011.12,0004.99,0004.60
2023-09-13 05:21:00,SystemResetWarning,0832.2,5.00,000.00,028.3,027.1,000.0,036.7,029.9,21.2,-000.1,0011.04,0004.96,0004.60
2023-09-13 05:22:00,SystemResetWarning,0832.2,5.00,000.00,028.4,027.2,000.0,036.7,030.0,21.2,0000.3,0010.86,0004.94,0004.61
2023-09-13 05:23:00,SystemResetWarning,0832.2,5.00,000.00,028.4,027.2,000.0,036.7,030.0,21.1,0000.9,0010.78,0004.93,0004.60
2023-09-13 05:24:00,SystemResetWarning,0832.2,5.00,000.00,028.4,027.2,000.0,036.7,030.1,21.0,0001.2,0010.93,0004.94,0004.59
2023-09-13 05:25:00,SystemResetWarning,0832.2,5.00,000.00,028.4,027.2,000.0,036.8,030.1,21.0,0000.9,0010.81,0004.96,0004.59
2023-09-13 05:26:00,SystemResetWarning,0832.2,4.99,000.00,028.5,027.3,000.0,036.8,030.1,21.0,0001.2,0010.91,0004.96,0004.59
2023-09-13 05:27:00,SystemResetWarning,0832.1,5.00,000.00,028.5,027.3,000.0,036.8,030.1,20.8,0000.8,0010.83,0004.96,0004.58
2023-09-13 05:28:00,SystemResetWarning,0832.2,5.00,000.00,028.5,027.3,000.0,036.8,030.2,20.8,0000.9,0010.79,0004.98,0004.60
2023-09-13 05:29:00,SystemResetWarning,0832.2,5.00,000.00,028.5,027.3,000.0,036.8,030.2,20.8,0001.2,0010.33,0004.98,0004.61
2023-09-13 05:30:00,SystemResetWarning,0832.2,5.00,000.00,028.5,027.4,000.0,036.8,030.2,20.9,0001.4,0010.06,0004.94,0004.60
2023-09-13 05:31:00,SystemResetWarning,0832.2,5.00,000.00,028.6,027.4,000.0,036.9,030.2,20.2,0001.1,0010.42,0004.95,0004.60
2023-09-13 05:32:00,SystemResetWarning,0832.2,5.00,000.00,028.6,027.4,000.0,036.9,030.2,20.1,0000.8,0010.80,0004.94,0004.59
2023-09-13 05:33:00,SystemResetWarning,0832.2,5.00,000.00,028.6,027.4,000.0,036.9,030.2,20.0,0000.3,0011.62,0004.92,0004.57
2023-09-13 05:34:00,SystemResetWarning,0832.2,4.99,000.00,028.6,027.4,000.0,036.9,030.3,19.9,0000.1,0011.65,0004.93,0004.57
2023-09-13 05:35:00,SystemResetWarning,0832.2,5.00,000.00,028.7,027.4,000.0,036.9,030.3,19.8,0000.0,0010.73,0004.91,0004.57
2023-09-13 05:36:00,SystemResetWarning,0832.2,5.00,000.00,028.7,027.5,000.0,036.9,030.3,19.8,0000.0,0010.28,0004.88,0004.56
2023-09-13 05:37:00,SystemResetWarning,0832.2,5.00,000.00,028.7,027.5,000.0,037.0,030.3,19.8,-000.0,0009.79,0004.86,0004.55
2023-09-13 05:38:00,SystemResetWarning,0832.2,5.00,000.00,028.7,027.5,000.0,037.0,030.4,19.8,-000.1,0009.43,0004.84,0004.53
2023-09-13 05:39:00,SystemResetWarning,0832.2,5.00,000.00,028.7,027.3,000.0,037.0,030.3,19.9,0000.0,0009.53,0004.80,0004.51
2023-09-13 05:40:00,SystemResetWarning,0832.1,5.00,000.00,028.7,025.6,000.0,036.9,030.1,20.0,0000.0,0010.12,0004.77,0004.49
2023-09-13 05:41:00,SystemResetWarning,0832.1,5.01,000.00,028.6,024.4,000.0,036.8,029.9,20.3,0000.1,0010.15,0004.77,0004.49
2023-09-13 05:42:00,SystemResetWarning,0832.1,5.01,000.00,028.5,024.3,000.0,036.8,029.7,20.3,0000.4,0009.96,0004.76,0004.48
2023-09-13 05:43:00,SystemResetWarning,0832.0,5.00,000.00,028.4,024.6,000.0,036.8,029.5,20.4,0000.3,0009.65,0004.79,0004.48
2023-09-13 05:44:00,SystemResetWarning,0832.0,5.00,000.00,028.3,024.9,000.0,036.8,029.4,20.4,-000.3,0008.75,0004.78,0004.48
2023-09-13 05:45:00,SystemResetWarning,0832.1,5.00,000.00,028.2,025.3,000.0,036.8,029.5,20.4,0000.0,0008.52,0004.77,0004.48
2023-09-13 05:46:00,SystemResetWarning,0832.1,5.00,000.00,028.2,025.6,000.0,036.7,029.5,20.5,0000.1,0008.52,0004.74,0004.47
2023-09-13 05:47:00,SystemResetWarning,0832.0,5.00,000.00,028.2,025.9,000.0,036.7,029.5,20.6,0000.2,0008.52,0004.75,0004.47
2023-09-13 05:48:00,SystemResetWarning,0832.0,5.01,000.00,028.2,026.1,000.0,036.7,029.6,20.7,0000.3,0008.49,0004.76,0004.47
2023-09-13 05:49:00,SystemResetWarning,0832.1,5.00,000.00,028.2,026.3,000.0,036.7,029.6,20.9,0001.1,0008.43,0004.75,0004.48
2023-09-13 05:50:00,SystemResetWarning,0832.0,5.00,000.00,028.2,026.4,000.0,036.7,029.7,20.8,0000.6,0008.16,0004.77,0004.48
2023-09-13 05:51:00,SystemResetWarning,0832.0,5.00,000.00,028.2,026.5,000.0,036.7,029.7,21.1,0000.2,0007.90,0004.80,0004.49
2023-09-13 05:52:00,SystemResetWarning,0832.1,5.00,000.00,028.2,026.7,000.0,036.7,029.7,20.8,-000.0,0007.91,0004.82,0004.48
2023-09-13 05:53:00,SystemResetWarning,0832.1,4.99,000.00,028.2,026.7,000.0,036.7,029.7,20.7,-000.1,0008.38,0004.82,0004.47
2023-09-13 05:54:00,SystemResetWarning,0832.0,5.01,000.00,028.2,026.8,000.0,036.7,029.8,20.6,0000.3,0008.46,0004.80,0004.46
2023-09-13 05:55:00,SystemResetWarning,0832.0,5.01,000.00,028.2,026.9,000.0,036.7,029.8,20.7,0001.0,0008.62,0004.80,0004.45
2023-09-13 05:56:00,SystemResetWarning,0832.0,5.01,000.00,028.3,026.9,000.0,036.7,029.8,20.7,0000.8,0008.69,0004.78,0004.43
2023-09-13 05:57:00,SystemResetWarning,0832.0,5.00,000.00,028.3,027.0,000.0,036.7,029.8,20.8,0000.8,0008.91,0004.81,0004.43
2023-09-13 05:58:00,SystemResetWarning,0832.0,4.99,000.00,028.3,027.0,000.0,036.7,029.9,20.7,0001.1,0009.31,0004.86,0004.43
2023-09-13 05:59:00,SystemResetWarning,0831.9,4.99,000.00,028.3,027.0,000.0,036.8,029.9,20.7,0001.4,0009.38,0004.89,0004.43
